Location: Gazon
(48.1318°N, 1.2708°W)
Time: 23:11:26
(UTC+00:00)

Cosmos 1300 Rocket - Pass Details

Date: 18 September 2020
Orbit: 601 x 627 km, 82.5° (Epoch: 25 October)

Event Time Altitude Azimuth Distance (km) Brightness Sun altitude
Rises 19:53:32 0° 192° (SSW) 2,876 6.9 -17.5°
Reaches altitude 10° 19:55:45 10° 194° (SSW) 1,979 6.1 -17.9°
Maximum altitude 20:00:08 75° 281° (W) 651 3.7 -18.5°
Drops below altitude 10° 20:04:35 10° 6° (N) 2,009 6.4 -19.2°
Sets 20:06:51 0° 9° (N) 2,923 7.2 -19.5°
